Location: Charlottesville
(38.0290°N, 78.4770°W)
Time: 14:27:48
(UTC-04:00)

OTV 5 (USA 277) - Pass Details

Date: 10 October 2017
Orbit: 404 x 417 km, 43.0° (Epoch: 07 September)

Event Time Altitude Azimuth Distance (km) Brightness Sun altitude
Rises 21:19:15 0° 271° (W) 2,351 ? -31.3°
Reaches altitude 10° 21:21:27 10° 280° (W) 1,488 ? -31.7°
Enters shadow 21:21:37 11° 281° (W) 1,421 ? -31.8°
